,,Stat6,,Stat2,,Stat8,,Stat9,,Stat10,,Wind1,,Wind1,
time,status,PA1M_AVG,status,PR1M_SUM,status,RH1M_AVG,status,SR1M_AVG,status,TA1M_AVG,status,W1dAve1m,status,W1sAve1m,
2004-05-27, 00:00:00,VALID,919.94,VALID,0,VALID,97.2269,VALID,0,VALID,18.7078,VALID,124,VALID,1.66574,
2004-05-27, 00:01:00,VALID,919.927,VALID,0,VALID,97.1735,VALID,0,VALID,18.6951,VALID,125,VALID,1.73633,
2004-05-27, 00:02:00,VALID,919.914,VALID,0,VALID,97.1862,VALID,0,VALID,18.6748,VALID,124,VALID,1.69531,
2004-05-27, 00:03:00,VALID,919.912,VALID,0,VALID,97.1862,VALID,0.0169808,VALID,18.6688,VALID,128,VALID,1.55291,
2004-05-27, 00:04:00,VALID,919.898,VALID,0,VALID,97.2142,VALID,0,VALID,18.6626,VALID,123,VALID,1.31468,
2004-05-27, 00:05:00,VALID,919.904,VALID,0,VALID,97.3083,VALID,0,VALID,18.6361,VALID,127,VALID,1.18388,
2004-05-27, 00:06:00,VALID,919.893,VALID,0,VALID,97.4062,VALID,0,VALID,18.6331,VALID,127,VALID,1.41152,
2004-05-27, 00:07:00,VALID,919.868,VALID,0,VALID,97.4863,VALID,0.0169808,VALID,18.637,VALID,130,VALID,1.32158,
2004-05-27, 00:08:00,VALID,919.856,VALID,0,VALID,97.6236,VALID,0.0169808,VALID,18.6333,VALID,119,VALID,1.44196,
2004-05-27, 00:09:00,VALID,919.84,VALID,0,VALID,97.7673,VALID,0,VALID,18.6557,VALID,115,VALID,1.63858,
2004-05-27, 00:10:00,VALID,919.839,VALID,0,VALID,97.7673,VALID,0.0169808,VALID,18.681,VALID,118,VALID,1.54048,
2004-05-27, 00:11:00,VALID,919.833,VALID,0,VALID,97.6224,VALID,-0.0339617,VALID,18.7304,VALID,123,VALID,1.44895,
2004-05-27, 00:12:00,VALID,919.835,VALID,0,VALID,97.4761,VALID,0,VALID,18.7493,VALID,129,VALID,1.31362,
2004-05-27, 00:13:00,VALID,919.84,VALID,0,VALID,97.4138,VALID,0,VALID,18.7631,VALID,129,VALID,1.26918,
2004-05-27, 00:14:00,VALID,919.844,VALID,0,VALID,97.3922,VALID,0,VALID,18.7624,VALID,119,VALID,1.50658,
2004-05-27, 00:15:00,VALID,919.835,VALID,0,VALID,97.3858,VALID,0,VALID,18.756,VALID,105,VALID,1.26363,
2004-05-27, 00:16:00,VALID,919.826,VALID,0,VALID,97.424,VALID,-0.0169808,VALID,18.7391,VALID,90,VALID,1.15916,
2004-05-27, 00:17:00,VALID,919.809,VALID,0,VALID,97.5054,VALID,0,VALID,18.7463,VALID,83,VALID,1.29563,
2004-05-27, 00:18:00,VALID,919.807,VALID,0,VALID,97.5422,VALID,-0.0169808,VALID,18.7331,VALID,74,VALID,1.21429,
2004-05-27, 00:19:00,VALID,919.817,VALID,0,VALID,97.4774,VALID,0,VALID,18.7103,VALID,87,VALID,1.51449,
2004-05-27, 00:20:00,VALID,919.816,VALID,0,VALID,97.2599,VALID,0.0169808,VALID,18.7364,VALID,102,VALID,1.31895,
2004-05-27, 00:21:00,VALID,919.825,VALID,0,VALID,97.0857,VALID,0,VALID,18.7458,VALID,96,VALID,1.05796,
2004-05-27, 00:22:00,VALID,919.816,VALID,0,VALID,96.9319,VALID,0,VALID,18.7657,VALID,81,VALID,1.16834,
2004-05-27, 00:23:00,VALID,919.824,VALID,0,VALID,96.942,VALID,0,VALID,18.7622,VALID,87,VALID,1.04315,
2004-05-27, 00:24:00,VALID,919.821,VALID,0,VALID,96.9929,VALID,0,VALID,18.7687,VALID,94,VALID,0.814596,
2004-05-27, 00:25:00,VALID,919.806,VALID,0,VALID,96.9751,VALID,-0.0169808,VALID,18.7694,VALID,106,VALID,0.960938,
2004-05-27, 00:26:00,VALID,919.804,VALID,0,VALID,97.0183,VALID,0,VALID,18.7592,VALID,115,VALID,1.28434,
2004-05-27, 00:27:00,VALID,919.795,VALID,0,VALID,97.0336,VALID,0,VALID,18.7426,VALID,105,VALID,1.41497,
2004-05-27, 00:28:01,VALID,919.776,VALID,0,VALID,97.0972,VALID,0,VALID,18.7458,VALID,117,VALID,1.15513,
2004-05-27, 00:29:00,VALID,919.762,VALID,0,VALID,97.1379,VALID,0.0169808,VALID,18.7361,VALID,104,VALID,1.1224,
2004-05-27, 00:30:01,VALID,919.749,VALID,0,VALID,97.1722,VALID,0,VALID,18.7205,VALID,107,VALID,1.04706,
2004-05-27, 00:31:00,VALID,919.735,VALID,0,VALID,97.2472,VALID,0,VALID,18.7041,VALID,91,VALID,0.637674,
2004-05-27, 00:32:00,VALID,919.719,VALID,0,VALID,97.3998,VALID,-0.0339617,VALID,18.708,VALID,72,VALID,0.723214,
2004-05-27, 00:33:00,VALID,919.706,VALID,0,VALID,97.466,VALID,0,VALID,18.688,VALID,87,VALID,0.773643,
2004-05-27, 00:34:00,VALID,919.682,VALID,0,VALID,97.5308,VALID,0,VALID,18.6783,VALID,102,VALID,1.1709,
2004-05-27, 00:35:00,VALID,919.701,VALID,0,VALID,97.5956,VALID,0.0169808,VALID,18.6845,VALID,100,VALID,1.17374,
2004-05-27, 00:36:00,VALID,919.691,VALID,0,VALID,97.6096,VALID,0,VALID,18.6785,VALID,108,VALID,1.01616,
2004-05-27, 00:37:00,VALID,919.688,VALID,0,VALID,97.6745,VALID,0,VALID,18.6757,VALID,102,VALID,1.00087,
2004-05-27, 00:38:00,VALID,919.667,VALID,0,VALID,97.7177,VALID,0,VALID,18.6624,VALID,104,VALID,1.14748,
2004-05-27, 00:39:00,VALID,919.674,VALID,0,VALID,97.7762,VALID,0,VALID,18.649,VALID,108,VALID,1.20805,
2004-05-27, 00:40:00,VALID,919.645,VALID,0,VALID,97.766,VALID,-0.0169808,VALID,18.6559,VALID,103,VALID,1.27053,
2004-05-27, 00:41:01,VALID,919.636,VALID,0,VALID,97.7966,VALID,-0.0169808,VALID,18.6691,VALID,102,VALID,1.30357,
2004-05-27, 00:42:00,VALID,919.634,VALID,0,VALID,97.7546,VALID,0,VALID,18.675,VALID,96,VALID,1.15263,
2004-05-27, 00:43:01,VALID,919.625,VALID,0,VALID,97.7139,VALID,0,VALID,18.6651,VALID,84,VALID,0.985102,
2004-05-27, 00:44:00,VALID,919.605,VALID,0,VALID,97.7749,VALID,0.0169808,VALID,18.6554,VALID,83,VALID,1.04706,
2004-05-27, 00:45:00,VALID,919.593,VALID,0,VALID,97.8449,VALID,0,VALID,18.6358,VALID,97,VALID,1.08136,
2004-05-27, 00:46:01,VALID,919.572,VALID,0,VALID,97.9225,VALID,0,VALID,18.6298,VALID,86,VALID,1.03403,
2004-05-27, 00:47:00,VALID,919.55,VALID,0,VALID,98.0038,VALID,0,VALID,18.6137,VALID,98,VALID,1.22545,
2004-05-27, 00:48:01,VALID,919.521,VALID,0,VALID,98.0572,VALID,0,VALID,18.6135,VALID,97,VALID,1.29161,
2004-05-27, 00:49:01,VALID,919.502,VALID,0,VALID,98.0026,VALID,0,VALID,18.6428,VALID,95,VALID,1.21449,
2004-05-27, 00:50:00,VALID,919.496,VALID,0,VALID,97.9072,VALID,0.0169808,VALID,18.6465,VALID,87,VALID,1.02009,
2004-05-27, 00:51:00,VALID,919.49,VALID,0,VALID,97.9288,VALID,0.0169808,VALID,18.6363,VALID,93,VALID,1.26871,
2004-05-27, 00:52:00,VALID,919.492,VALID,0,VALID,97.9314,VALID,0.0169808,VALID,18.6361,VALID,87,VALID,0.910904,
2004-05-27, 00:53:00,VALID,919.494,VALID,0,VALID,97.9288,VALID,0.0339617,VALID,18.6356,VALID,107,VALID,0.912609,
2004-05-27, 00:54:01,VALID,919.491,VALID,0,VALID,98.0229,VALID,0.0339617,VALID,18.6197,VALID,115,VALID,0.982422,
2004-05-27, 00:55:01,VALID,919.501,VALID,0,VALID,98.0598,VALID,0.0509425,VALID,18.6137,VALID,116,VALID,0.983285,
2004-05-27, 00:56:00,VALID,919.504,VALID,0,VALID,98.1755,VALID,0.0509425,VALID,18.5713,VALID,116,VALID,1.03506,
2004-05-27, 00:57:01,VALID,919.513,VALID,0,VALID,98.3268,VALID,0,VALID,18.542,VALID,118,VALID,1.1756,
2004-05-27, 00:58:00,VALID,919.505,VALID,0,VALID,98.4616,VALID,0.0339617,VALID,18.5236,VALID,118,VALID,1.17099,
2004-05-27, 00:59:00,VALID,919.495,VALID,0,VALID,98.5532,VALID,0.0339617,VALID,18.4973,VALID,114,VALID,1.23633,
2004-05-27, 01:00:00,VALID,919.506,VALID,0,VALID,98.6613,VALID,0.0169808,VALID,18.4811,VALID,114,VALID,1.25457,
2004-05-27, 01:01:00,VALID,919.489,VALID,0,VALID,98.7465,VALID,0,VALID,18.468,VALID,115,VALID,1.16878,
2004-05-27, 01:02:01,VALID,919.486,VALID,0,VALID,98.8304,VALID,0.0169808,VALID,18.4714,VALID,109,VALID,1.13077,
2004-05-27, 01:03:00,VALID,919.48,VALID,0,VALID,98.8978,VALID,0.0169808,VALID,18.4816,VALID,101,VALID,1.16273,
2004-05-27, 01:04:00,VALID,919.472,VALID,0,VALID,98.9143,VALID,0,VALID,18.4851,VALID,103,VALID,1.03361,
2004-05-27, 01:05:00,VALID,919.462,VALID,0,VALID,98.8876,VALID,0.0169808,VALID,18.4784,VALID,104,VALID,1.06094,
2004-05-27, 01:06:00,VALID,919.463,VALID,0,VALID,98.8342,VALID,0,VALID,18.4781,VALID,95,VALID,0.923328,
2004-05-27, 01:07:01,VALID,919.458,VALID,0,VALID,98.8202,VALID,0,VALID,18.4585,VALID,108,VALID,1.15293,
2004-05-27, 01:08:00,VALID,919.457,VALID,0,VALID,98.8164,VALID,0,VALID,18.459,VALID,107,VALID,1.29208,
2004-05-27, 01:09:00,VALID,919.458,VALID,0,VALID,98.8126,VALID,0.0169808,VALID,18.4493,VALID,113,VALID,1.56632,
2004-05-27, 01:10:00,VALID,919.473,VALID,0,VALID,98.7503,VALID,0,VALID,18.426,VALID,114,VALID,1.37837,
2004-05-27, 01:11:00,VALID,919.472,VALID,0,VALID,98.6638,VALID,0.0169808,VALID,18.4456,VALID,107,VALID,1.29124,
2004-05-27, 01:12:01,VALID,919.469,VALID,0,VALID,98.6002,VALID,0,VALID,18.4491,VALID,104,VALID,1.30718,
2004-05-27, 01:13:01,VALID,919.463,VALID,0,VALID,98.5163,VALID,0,VALID,18.4426,VALID,90,VALID,0.974276,
2004-05-27, 01:14:01,VALID,919.454,VALID,0,VALID,98.5277,VALID,0,VALID,18.4336,VALID,90,VALID,0.609012,
2004-05-27, 01:15:01,VALID,919.462,VALID,0,VALID,98.5646,VALID,0,VALID,18.417,VALID,66,VALID,0.769531,
2004-05-27, 01:16:00,VALID,919.451,VALID,0,VALID,98.5481,VALID,0.0169808,VALID,18.4009,VALID,76,VALID,0.773438,
2004-05-27, 01:17:01,VALID,919.437,VALID,0,VALID,98.5608,VALID,0,VALID,18.3815,VALID,76,VALID,0.854167,
2004-05-27, 01:18:00,VALID,919.426,VALID,0,VALID,98.7465,VALID,0,VALID,18.3656,VALID,79,VALID,0.912064,
2004-05-27, 01:19:01,VALID,919.408,VALID,0,VALID,98.796,VALID,0,VALID,18.3559,VALID,80,VALID,0.790334,
2004-05-27, 01:20:00,VALID,919.389,VALID,0,VALID,98.8456,VALID,0,VALID,18.3234,VALID,80,VALID,0.873935,
2004-05-27, 01:21:00,VALID,919.407,VALID,0,VALID,98.9486,VALID,0,VALID,18.3075,VALID,79,VALID,0.975074,
2004-05-27, 01:22:01,VALID,919.398,VALID,0,VALID,99.0555,VALID,0.0169808,VALID,18.2845,VALID,74,VALID,0.983073,
2004-05-27, 01:23:01,VALID,919.383,VALID,0,VALID,99.1279,VALID,0,VALID,18.2755,VALID,83,VALID,0.986235,
2004-05-27, 01:24:00,VALID,919.378,VALID,0,VALID,99.2208,VALID,0,VALID,18.2623,VALID,97,VALID,1.17517,
2004-05-27, 01:25:00,VALID,919.365,VALID,0,VALID,99.2818,VALID,0,VALID,18.2782,VALID,101,VALID,1.09375,
2004-05-27, 01:26:01,VALID,919.352,VALID,0,VALID,99.2462,VALID,0,VALID,18.2847,VALID,104,VALID,1.09648,
2004-05-27, 01:27:00,VALID,919.348,VALID,0,VALID,99.1025,VALID,0,VALID,18.3008,VALID,100,VALID,0.815341,
2004-05-27, 01:28:00,VALID,919.331,VALID,0,VALID,98.9575,VALID,0,VALID,18.3038,VALID,101,VALID,0.908249,
2004-05-27, 01:29:01,VALID,919.315,VALID,0,VALID,98.8418,VALID,0,VALID,18.3105,VALID,96,VALID,0.743862,
2004-05-27, 01:30:01,VALID,919.301,VALID,0,VALID,98.7643,VALID,0,VALID,18.3004,VALID,87,VALID,0.986523,
2004-05-27, 01:31:01,VALID,919.284,VALID,0,VALID,98.7096,VALID,0.0169808,VALID,18.3105,VALID,76,VALID,1.09434,
2004-05-27, 01:32:00,VALID,919.274,VALID,0,VALID,98.6371,VALID,0.0169808,VALID,18.3006,VALID,72,VALID,1.16778,
2004-05-27, 01:33:00,VALID,919.262,VALID,0,VALID,98.5646,VALID,0.0339617,VALID,18.3006,VALID,72,VALID,1.15644,
2004-05-27, 01:34:01,VALID,919.268,VALID,0,VALID,98.501,VALID,0,VALID,18.2941,VALID,68,VALID,0.936047,
2004-05-27, 01:35:00,VALID,919.268,VALID,0,VALID,98.4731,VALID,0.0169808,VALID,18.2716,VALID,58,VALID,0.993278,
2004-05-27, 01:36:01,VALID,919.258,VALID,0,VALID,98.5405,VALID,0.0169808,VALID,18.2492,VALID,62,VALID,1.01362,
2004-05-27, 01:37:01,VALID,919.247,VALID,0,VALID,98.6536,VALID,0.0339617,VALID,18.2328,VALID,82,VALID,0.903773,
2004-05-27, 01:38:00,VALID,919.249,VALID,0,VALID,98.749,VALID,0,VALID,18.2234,VALID,100,VALID,0.833147,
2004-05-27, 01:39:01,VALID,919.225,VALID,0,VALID,98.735,VALID,0,VALID,18.2335,VALID,79,VALID,0.578125,
2004-05-27, 01:40:00,VALID,919.23,VALID,0,VALID,98.6714,VALID,0,VALID,18.2236,VALID,65,VALID,0.517912,
2004-05-27, 01:41:01,VALID,919.21,VALID,0,VALID,98.6244,VALID,0,VALID,18.2035,VALID,51,VALID,0.776786,
2004-05-27, 01:42:00,VALID,919.21,VALID,0,VALID,98.6295,VALID,0.0169808,VALID,18.1879,VALID,51,VALID,0.960938,
2004-05-27, 01:43:01,VALID,919.207,VALID,0,VALID,98.6473,VALID,-0.0169808,VALID,18.172,VALID,51,VALID,0.80878,
2004-05-27, 01:44:01,VALID,919.19,VALID,0,VALID,98.7388,VALID,-0.0169808,VALID,18.1427,VALID,51,VALID,0.731957,
2004-05-27, 01:45:00,VALID,919.169,VALID,0,VALID,98.8329,VALID,0,VALID,18.1431,VALID,61,VALID,0.73383,
2004-05-27, 01:46:00,VALID,919.156,VALID,0,VALID,98.8711,VALID,0,VALID,18.1431,VALID,72,VALID,0.775618,
2004-05-27, 01:47:01,VALID,919.127,VALID,0,VALID,98.8507,VALID,-0.0169808,VALID,18.1325,VALID,78,VALID,0.701349,
2004-05-27, 01:48:01,VALID,919.121,VALID,0,VALID,98.7579,VALID,0,VALID,18.1563,VALID,62,VALID,0.686967,
2004-05-27, 01:49:00,VALID,919.093,VALID,0,VALID,98.7236,VALID,0,VALID,18.1595,VALID,55,VALID,0.749628,
2004-05-27, 01:50:01,VALID,919.075,VALID,0,VALID,98.6943,VALID,-0.0339617,VALID,18.1464,VALID,55,VALID,0.793341,
2004-05-27, 01:51:01,VALID,919.07,VALID,0,VALID,98.6663,VALID,-0.0169808,VALID,18.1136,VALID,55,VALID,0.890803,
2004-05-27, 01:52:00,VALID,919.042,VALID,0,VALID,98.6918,VALID,-0.0169808,VALID,18.0977,VALID,65,VALID,0.921689,
2004-05-27, 01:53:01,VALID,919.036,VALID,0,VALID,98.7541,VALID,0,VALID,18.0818,VALID,80,VALID,0.824695,
2004-05-27, 01:54:01,VALID,919.017,VALID,0,VALID,98.8139,VALID,-0.0169808,VALID,18.0818,VALID,95,VALID,0.782939,
2004-05-27, 01:55:00,VALID,919.012,VALID,0,VALID,98.9041,VALID,0,VALID,18.0682,VALID,99,VALID,0.852493,
2004-05-27, 01:56:01,VALID,918.99,VALID,0,VALID,98.9728,VALID,-0.0339617,VALID,18.0721,VALID,103,VALID,1.06712,
2004-05-27, 01:57:00,VALID,918.987,VALID,0,VALID,99.0237,VALID,0,VALID,18.0558,VALID,97,VALID,0.845703,
2004-05-27, 01:58:01,VALID,918.98,VALID,0,VALID,99.1,VALID,0.0169808,VALID,18.0528,VALID,96,VALID,0.863636,
2004-05-27, 01:59:00,VALID,918.977,VALID,0,VALID,99.1852,VALID,0.0169808,VALID,18.0431,VALID,96,VALID,0.834302,
2004-05-27, 02:00:00,VALID,918.964,VALID,0,VALID,99.2271,VALID,-0.0169808,VALID,18.0597,VALID,73,VALID,0.747596,
2004-05-27, 02:01:00,VALID,918.968,VALID,0,VALID,99.1406,VALID,-0.0169808,VALID,18.0594,VALID,81,VALID,0.6875,
2004-05-27, 02:02:01,VALID,918.961,VALID,0,VALID,99.1063,VALID,0,VALID,18.056,VALID,69,VALID,0.762576,
2004-05-27, 02:03:01,VALID,918.939,VALID,0,VALID,99.0733,VALID,0,VALID,18.0399,VALID,76,VALID,0.859557,
2004-05-27, 02:04:01,VALID,918.927,VALID,0,VALID,99.0783,VALID,0,VALID,18.0366,VALID,92,VALID,0.547461,
2004-05-27, 02:05:00,VALID,918.91,VALID,0,VALID,99.119,VALID,0,VALID,18.0265,VALID,97,VALID,0.779726,
2004-05-27, 02:06:01,VALID,918.898,VALID,0,VALID,99.2297,VALID,0,VALID,18.0495,VALID,116,VALID,0.471946,
2004-05-27, 02:07:01,VALID,918.892,VALID,0,VALID,99.2208,VALID,0.0169808,VALID,18.0495,VALID,102,VALID,0.49256,
2004-05-27, 02:08:01,VALID,918.88,VALID,0,VALID,99.2055,VALID,0.0169808,VALID,18.0325,VALID,118,VALID,0.695126,
2004-05-27, 02:09:00,VALID,918.876,VALID,0,VALID,99.1559,VALID,0.0169808,VALID,18.0332,VALID,105,VALID,0.437863,
2004-05-27, 02:10:01,VALID,918.855,VALID,0,VALID,99.1813,VALID,0,VALID,18.0299,VALID,100,VALID,0.163867,
2004-05-27, 02:11:00,VALID,918.848,VALID,0,VALID,99.1763,VALID,0,VALID,18.0267,VALID,100,VALID,0.0666667,
2004-05-27, 02:12:01,VALID,918.835,VALID,0,VALID,99.2055,VALID,0,VALID,18.0269,VALID,100,VALID,0.0327381,
2004-05-27, 02:13:00,VALID,918.835,VALID,0,VALID,99.208,VALID,0,VALID,18.0106,VALID,100,VALID,0.384375,
2004-05-27, 02:14:01,VALID,918.843,VALID,0,VALID,99.2004,VALID,0,VALID,17.988,VALID,63,VALID,0.707711,
2004-05-27, 02:15:01,VALID,918.848,VALID,0,VALID,99.1991,VALID,0,VALID,17.9589,VALID,56,VALID,0.93457,
2004-05-27, 02:16:00,VALID,918.838,VALID,0,VALID,99.208,VALID,0,VALID,17.9301,VALID,50,VALID,1.03681,
2004-05-27, 02:17:00,VALID,918.837,VALID,0,VALID,99.3288,VALID,-0.0169808,VALID,17.9144,VALID,51,VALID,1.08825,
2004-05-27, 02:18:00,VALID,918.837,VALID,0,VALID,99.4636,VALID,0,VALID,17.9008,VALID,57,VALID,1.0109,
2004-05-27, 02:19:01,VALID,918.838,VALID,0,VALID,99.5527,VALID,0,VALID,17.8978,VALID,66,VALID,0.918064,
2004-05-27, 02:20:00,VALID,918.824,VALID,0,VALID,99.5616,VALID,0,VALID,17.9047,VALID,76,VALID,1.04557,
2004-05-27, 02:21:01,VALID,918.82,VALID,0,VALID,99.559,VALID,-0.0169808,VALID,17.9045,VALID,87,VALID,1.03047,
2004-05-27, 02:22:00,VALID,918.822,VALID,0,VALID,99.517,VALID,-0.0169808,VALID,17.9211,VALID,98,VALID,0.87407,
2004-05-27, 02:23:01,VALID,918.809,VALID,0,VALID,99.5704,VALID,-0.0169808,VALID,17.9308,VALID,118,VALID,1.07752,
2004-05-27, 02:24:01,VALID,918.816,VALID,0,VALID,99.5857,VALID,0.0169808,VALID,17.9497,VALID,121,VALID,1.33848,
2004-05-27, 02:25:00,VALID,918.815,VALID,0,VALID,99.4827,VALID,0,VALID,17.9857,VALID,112,VALID,1.27734,
2004-05-27, 02:26:01,VALID,918.802,VALID,0,VALID,99.3428,VALID,0,VALID,17.9854,VALID,119,VALID,1.36682,
2004-05-27, 02:27:01,VALID,918.821,VALID,0,VALID,99.208,VALID,0,VALID,17.9889,VALID,117,VALID,1.35286,
2004-05-27, 02:28:00,VALID,918.834,VALID,0,VALID,99.2208,VALID,0,VALID,17.9919,VALID,125,VALID,1.27202,
2004-05-27, 02:29:01,VALID,918.827,VALID,0,VALID,99.3377,VALID,0,VALID,18.011,VALID,131,VALID,1.238,
2004-05-27, 02:30:01,VALID,918.81,VALID,0,VALID,99.3848,VALID,0.0169808,VALID,18.0113,VALID,121,VALID,1.02641,
2004-05-27, 02:31:01,VALID,918.828,VALID,0,VALID,99.4306,VALID,0,VALID,18.0016,VALID,125,VALID,1.08809,
2004-05-27, 02:32:01,VALID,918.823,VALID,0,VALID,99.5018,VALID,0,VALID,17.9986,VALID,120,VALID,1.01651,
2004-05-27, 02:33:01,VALID,918.82,VALID,0,VALID,99.5323,VALID,0.0169808,VALID,17.9852,VALID,113,VALID,0.93045,
2004-05-27, 02:34:01,VALID,918.804,VALID,0,VALID,99.5654,VALID,-0.0169808,VALID,17.9688,VALID,123,VALID,1.01314,
2004-05-27, 02:35:01,VALID,918.799,VALID,0,VALID,99.6188,VALID,0,VALID,17.9628,VALID,123,VALID,1.17207,
2004-05-27, 02:36:01,VALID,918.778,VALID,0,VALID,99.6887,VALID,0,VALID,17.9529,VALID,120,VALID,1.09847,
2004-05-27, 02:37:00,VALID,918.773,VALID,0,VALID,99.7447,VALID,0,VALID,17.94,VALID,100,VALID,1.1076,
2004-05-27, 02:38:01,VALID,918.761,VALID,0,VALID,99.7561,VALID,-0.0169808,VALID,17.9306,VALID,97,VALID,1.06979,
2004-05-27, 02:39:01,VALID,918.749,VALID,0,VALID,99.7625,VALID,0.0169808,VALID,17.9301,VALID,105,VALID,0.999637,
2004-05-27, 02:40:01,VALID,918.715,VALID,0,VALID,99.7523,VALID,0,VALID,17.9172,VALID,108,VALID,1.08931,
2004-05-27, 02:41:01,VALID,918.676,VALID,0,VALID,99.7447,VALID,0.0169808,VALID,17.94,VALID,112,VALID,1.09073,
2004-05-27, 02:42:01,VALID,918.67,VALID,0,VALID,99.6785,VALID,0.0169808,VALID,17.9467,VALID,108,VALID,1.0002,
2004-05-27, 02:43:01,VALID,918.645,VALID,0,VALID,99.5883,VALID,0,VALID,17.9437,VALID,97,VALID,0.939317,
2004-05-27, 02:44:01,VALID,918.62,VALID,0,VALID,99.5806,VALID,0,VALID,17.9338,VALID,108,VALID,1.23142,
2004-05-27, 02:45:01,VALID,918.612,VALID,0,VALID,99.456,VALID,-0.0339617,VALID,17.9605,VALID,101,VALID,1.13814,
2004-05-27, 02:46:01,VALID,918.607,VALID,0,VALID,99.2856,VALID,0,VALID,17.9499,VALID,109,VALID,1.12234,
2004-05-27, 02:47:01,VALID,918.598,VALID,0,VALID,99.1915,VALID,-0.0169808,VALID,17.9495,VALID,106,VALID,1.27514,
2004-05-27, 02:48:01,VALID,918.593,VALID,0,VALID,99.0758,VALID,0.0169808,VALID,17.9465,VALID,110,VALID,1.38699,
2004-05-27, 02:49:01,VALID,918.59,VALID,0,VALID,98.8952,VALID,-0.0339617,VALID,17.9667,VALID,118,VALID,1.19122,
2004-05-27, 02:50:01,VALID,918.596,VALID,0,VALID,98.8024,VALID,-0.101885,VALID,17.964,VALID,106,VALID,1.46839,
2004-05-27, 02:51:01,VALID,918.603,VALID,0,VALID,98.6867,VALID,-0.101885,VALID,17.9739,VALID,105,VALID,1.35286,
2004-05-27, 02:52:01,VALID,918.613,VALID,0,VALID,98.6409,VALID,-0.101885,VALID,17.964,VALID,108,VALID,1.63039,
2004-05-27, 02:53:01,VALID,918.624,VALID,0,VALID,98.6778,VALID,-0.101885,VALID,17.958,VALID,110,VALID,1.35324,
2004-05-27, 02:54:01,VALID,918.628,VALID,0,VALID,98.6867,VALID,-0.0849042,VALID,17.9547,VALID,108,VALID,0.793423,
2004-05-27, 02:55:01,VALID,918.625,VALID,0,VALID,98.5761,VALID,-0.101885,VALID,17.9384,VALID,97,VALID,1.70512,
2004-05-27, 02:56:01,VALID,918.624,VALID,0,VALID,98.4324,VALID,-0.118866,VALID,17.9351,VALID,110,VALID,2.01847,
2004-05-27, 02:57:01,VALID,918.635,VALID,0,VALID,98.2734,VALID,-0.101885,VALID,17.9487,VALID,115,VALID,1.77553,
2004-05-27, 02:58:01,VALID,918.646,VALID,0,VALID,98.0839,VALID,-0.101885,VALID,17.9584,VALID,124,VALID,1.48438,
2004-05-27, 02:59:01,VALID,918.644,VALID,0,VALID,97.9593,VALID,-0.101885,VALID,17.9677,VALID,117,VALID,1.68281,
2004-05-27, 03:00:01,VALID,918.651,VALID,0,VALID,97.6402,VALID,-0.118866,VALID,17.9547,VALID,107,VALID,1.58803,
2004-05-27, 03:01:01,VALID,918.645,VALID,0,VALID,97.4405,VALID,-0.101885,VALID,17.9838,VALID,95,VALID,1.02437,
2004-05-27, 03:02:00,VALID,918.657,VALID,0,VALID,97.2434,VALID,-0.152827,VALID,18.0004,VALID,114,VALID,1.41191,
2004-05-27, 03:03:00,VALID,918.666,VALID,0,VALID,97.1989,VALID,-0.101885,VALID,18.0062,VALID,117,VALID,1.39984,
2004-05-27, 03:04:00,VALID,918.671,VALID,0,VALID,97.2803,VALID,-0.0849042,VALID,18.0128,VALID,95,VALID,0.84737,
2004-05-27, 03:05:00,VALID,918.664,VALID,0,VALID,97.4405,VALID,-0.0169808,VALID,17.9919,VALID,79,VALID,0.99638,
2004-05-27, 03:06:00,VALID,918.657,VALID,0,VALID,97.307,VALID,-0.0169808,VALID,17.9596,VALID,97,VALID,1.27965,
2004-05-27, 03:07:00,VALID,918.649,VALID,0,VALID,96.8645,VALID,0.0169808,VALID,17.9301,VALID,106,VALID,1.30723,
2004-05-27, 03:08:00,VALID,918.628,VALID,0,VALID,96.2706,VALID,0,VALID,17.9407,VALID,103,VALID,1.05614,
2004-05-27, 03:09:00,VALID,918.612,VALID,0,VALID,95.865,VALID,0,VALID,17.9598,VALID,100,VALID,0.940952,
2004-05-27, 03:10:00,VALID,918.611,VALID,0,VALID,95.5102,VALID,0,VALID,17.9921,VALID,101,VALID,0.938643,
2004-05-27, 03:11:00,VALID,918.615,VALID,0,VALID,95.1415,VALID,-0.0169808,VALID,18.0018,VALID,104,VALID,0.85766,
2004-05-27, 03:12:00,VALID,918.604,VALID,0,VALID,94.877,VALID,-0.0169808,VALID,18.0242,VALID,103,VALID,0.924419,
2004-05-27, 03:13:00,VALID,918.589,VALID,0,VALID,94.217,VALID,0,VALID,18.0341,VALID,111,VALID,0.92242,
2004-05-27, 03:14:00,VALID,918.578,VALID,0,VALID,93.8889,VALID,0,VALID,18.0498,VALID,119,VALID,1.13548,
2004-05-27, 03:15:00,VALID,918.581,VALID,0,VALID,93.9169,VALID,0.0169808,VALID,18.0629,VALID,104,VALID,0.670201,
2004-05-27, 03:16:00,VALID,918.565,VALID,0,VALID,93.7859,VALID,0,VALID,18.0758,VALID,103,VALID,0.550114,
2004-05-27, 03:17:00,VALID,918.572,VALID,0,VALID,94.2195,VALID,0,VALID,18.0756,VALID,96,VALID,0.367006,
2004-05-27, 03:18:00,VALID,918.56,VALID,0,VALID,94.4141,VALID,0.0169808,VALID,18.0594,VALID,85,VALID,0.549733,
2004-05-27, 03:19:00,VALID,918.557,VALID,0,VALID,94.2323,VALID,0,VALID,18.0502,VALID,77,VALID,0.547805,
2004-05-27, 03:20:00,VALID,918.543,VALID,0,VALID,94.5107,VALID,0,VALID,18.0242,VALID,71,VALID,0.616406,
2004-05-27, 03:21:00,VALID,918.535,VALID,0,VALID,94.395,VALID,0,VALID,18.0018,VALID,73,VALID,0.725472,
2004-05-27, 03:22:00,VALID,918.539,VALID,0,VALID,94.3505,VALID,0,VALID,17.9661,VALID,74,VALID,0.674414,
2004-05-27, 03:23:00,VALID,918.528,VALID,0,VALID,94.2005,VALID,-0.0169808,VALID,17.9403,VALID,88,VALID,0.754764,
2004-05-27, 03:24:00,VALID,918.536,VALID,0,VALID,94.3035,VALID,0,VALID,17.9566,VALID,82,VALID,0.653706,
2004-05-27, 03:25:00,VALID,918.539,VALID,0,VALID,94.1954,VALID,0.0169808,VALID,17.9658,VALID,77,VALID,0.88125,
2004-05-27, 03:26:00,VALID,918.552,VALID,0,VALID,94.381,VALID,0,VALID,17.9919,VALID,76,VALID,0.678052,
2004-05-27, 03:27:00,VALID,918.566,VALID,0,VALID,94.3658,VALID,0,VALID,17.9887,VALID,80,VALID,0.878819,
2004-05-27, 03:28:00,VALID,918.566,VALID,0,VALID,94.2183,VALID,0,VALID,17.9951,VALID,90,VALID,0.957031,
2004-05-27, 03:29:00,VALID,918.574,VALID,0,VALID,94.1699,VALID,-0.0169808,VALID,17.9951,VALID,88,VALID,1.02827,
2004-05-27, 03:30:00,VALID,918.575,VALID,0,VALID,94.1661,VALID,0,VALID,18.0145,VALID,83,VALID,1.06146,
2004-05-27, 03:31:00,VALID,918.578,VALID,0,VALID,94.3035,VALID,-0.0339617,VALID,18.0375,VALID,76,VALID,1.09248,
2004-05-27, 03:32:00,VALID,918.591,VALID,0,VALID,94.2997,VALID,-0.0169808,VALID,18.0246,VALID,84,VALID,1.0731,
2004-05-27, 03:33:00,VALID,918.602,VALID,0,VALID,94.6023,VALID,0,VALID,18.0117,VALID,52,VALID,0.580983,
2004-05-27, 03:34:00,VALID,918.6,VALID,0,VALID,94.9927,VALID,0,VALID,17.9822,VALID,45,VALID,0.569041,
2004-05-27, 03:35:00,VALID,918.605,VALID,0,VALID,95.2839,VALID,0,VALID,17.9338,VALID,63,VALID,0.913154,
2004-05-27, 03:36:00,VALID,918.59,VALID,0,VALID,95.3881,VALID,0,VALID,17.9017,VALID,68,VALID,1.15465,
2004-05-27, 03:37:00,VALID,918.587,VALID,0,VALID,95.481,VALID,-0.0339617,VALID,17.8628,VALID,78,VALID,1.11105,
2004-05-27, 03:38:00,VALID,918.606,VALID,0,VALID,95.6793,VALID,-0.0169808,VALID,17.8503,VALID,82,VALID,1.19196,